[[{"header":{"parameterUnit":"m.s-1","parameterCategory":1,"la1":30.2991,"la2":30.254,"lo1":-89.0895,"lo2":-89.0444,"dy":0.0017,"dx":0.0017,"nx":28,"ny":28,"refTime":"2023-08-07T21:00:00:Z","depth":0,"parameterNumber":2,"parameterNumberName":"U-component_of_WINDS"},"data":[0,0,0,0,0,0,0,0,0,0,0,0,0,0,0,0,0,0,0,0,0,0,0,0,0,0,0,0,0,0,0,0,0,0,0,0,0,0,0,0,0,0,0,0,0,0,0,0,0,0,0,0,0,0,0,0,0,0,3.6207,3.6208,0,3.6315,3.6316,3.6318,3.6299,3.6298,3.6296,3.6294,3.6411,3.6416,3.6421,0,0,0,0,0,0,0,0,0,0,0,0,0,3.5992,3.5996,3.6207,3.6208,3.621,3.6315,3.6317,3.6318,3.63,3.6297,3.6295,3.6293,3.641,3.6416,3.6421,0,0,0,0,0,0,0,0,0,0,0,0,0,3.6091,3.5997,3.6207,3.6213,3.6215,3.6315,3.6317,3.6318,3.63,3.6297,3.6295,3.6292,3.6408,3.6415,3.6422,3.6525,0,0,3.6445,3.6448,0,0,0,0,0,0,0,0,3.6086,3.6099,3.6211,3.6213,3.6215,3.6291,3.6284,3.6388,3.6301,3.6268,3.6294,3.6291,3.6374,3.6384,3.6411,3.653,3.6535,3.6445,3.645,3.6453,3.6455,0,0,0,0,0,0,0,3.6079,3.6095,3.625,3.6212,3.6215,3.6213,3.6224,3.6303,3.6336,3.6271,3.627,3.6282,3.6375,3.6404,3.6413,3.6537,3.6445,3.6452,3.6456,3.6459,3.6749,3.6752,0,0,0,0,0,0,3.6069,3.6089,3.6246,3.6253,3.6142,3.6219,3.6231,3.6269,3.6335,3.6342,3.6285,3.6281,3.6393,3.6405,3.6417,3.6543,3.6453,3.646,3.6464,3.6746,3.675,3.6753,0,0,0,0,0,0,3.6064,3.6083,3.6242,3.6171,3.6191,3.6226,3.6269,3.6273,3.6302,3.6345,3.6352,3.6308,3.6391,3.6407,3.6498,3.6547,3.6463,3.647,3.6742,3.6747,3.6752,3.6795,0,0,0,0,0,0,3.6058,3.6082,3.6119,3.6172,3.6195,3.6319,3.6272,3.6277,3.6314,3.631,3.6369,3.6376,3.639,3.6487,3.6506,3.6556,3.6476,3.6738,3.6744,3.675,3.6789,3.6801,3.6811,0,0,0,0,0,3.6051,3.6128,3.6121,3.614,3.6242,3.6322,3.6335,3.6348,3.6318,3.6357,3.6385,3.6374,3.6539,3.6497,3.6517,3.657,3.6735,3.6742,3.6749,3.6785,3.6799,3.681,0,0,0,0,0,0,3.6082,3.6135,3.6128,3.6224,3.6268,3.6318,3.6368,3.6362,3.6417,3.6412,3.6427,3.644,3.6533,3.6561,3.6513,3.6674,3.6633,3.6645,3.6653,3.6666,3.6677,3.6669,3.6482,0,0,0,0,0,3.6099,3.6158,3.6202,3.6282,3.6305,3.6333,3.6368,3.6374,3.6421,3.6441,3.6475,3.6524,3.6587,3.6628,3.6688,3.6793,3.6807,3.684,3.6851,3.6859,3.687,3.693,3.6945,3.6778,3.6778,3.6777,0,0,3.6137,3.6173,3.621,3.629,3.6325,3.6387,3.6349,3.6416,3.6464,3.6452,3.654,3.6567,3.6623,3.6722,3.6767,3.6748,3.6919,3.6869,3.6875,3.6881,3.6939,3.6955,3.6969,3.6783,3.6782,3.6781,0,0,3.6238,3.627,3.6342,3.6378,3.6431,3.6449,3.6467,3.6518,3.6536,3.6624,3.6617,3.6675,3.6782,3.6822,3.6857,3.6975,3.6968,3.6995,3.705,3.7109,3.7122,3.7134,3.7178,3.7193,3.7005,3.7005,3.7005,0,3.6279,3.637,3.638,3.6448,3.6485,3.6476,3.655,3.6585,3.6656,3.6683,3.6659,3.6795,3.6832,3.6941,3.697,3.6998,3.702,3.6988,3.7119,3.7131,3.7142,3.7184,3.7201,3.7008,3.7007,3.7007,3.7007,0,3.6419,3.6483,3.6535,3.6602,3.6645,3.6716,3.6739,3.6781,3.6784,3.6805,3.6897,3.6941,3.701,3.7037,3.704,3.7148,3.7134,3.7115,3.7074,3.7161,3.7201,3.7217,3.7012,3.7011,3.701,3.7009,0,0,3.6542,3.6614,3.6633,3.6664,3.6723,3.6774,3.6846,3.6912,3.695,3.7,3.7062,3.7154,3.7137,3.7176,3.7185,3.7236,3.7329,3.721,3.7212,3.7232,3.7453,3.7467,3.7486,3.7324,3.7327,3.733,3.7448,0,3.665,3.6774,3.6786,3.6899,3.6959,3.6952,3.7016,3.706,3.7083,3.714,3.7166,3.7231,3.7202,3.7226,3.7276,3.7307,3.7374,3.7298,3.7385,3.7388,3.7372,3.7506,3.7522,3.7631,3.7464,3.7466,3.7468,0,3.6791,3.6844,3.6962,3.7014,3.704,3.7097,3.7159,3.7213,3.7265,3.7278,3.7322,3.7324,3.7402,3.7357,3.7465,3.7414,3.745,3.7471,3.7475,3.7485,3.7434,3.7521,3.7666,3.7683,3.7493,3.7491,3.7489,0,3.6871,3.6972,3.7056,3.7083,3.7145,3.7185,3.7214,3.7262,3.7302,3.7358,3.7384,3.7449,3.7485,3.7536,3.7557,3.7522,3.7665,3.7622,3.768,3.768,3.7711,3.7709,3.7866,3.7733,3.7733,3.7732,3.7732,0,3.699,3.7064,3.7093,3.7145,3.7228,3.7242,3.7324,3.7351,3.7395,3.7454,3.7452,3.7508,3.7532,3.7592,3.7609,3.7698,3.7714,3.7728,3.7732,3.7729,3.7727,3.7754,3.7747,3.7737,3.7736,3.7735,3.7734,0,3.7094,3.7116,3.7207,3.7259,3.7274,3.7333,3.7378,3.743,3.7452,3.7527,3.7546,3.7582,3.7653,3.7678,3.7766,3.7777,3.788,3.7877,3.7862,3.7863,3.7921,3.7916,3.8101,3.8127,3.7976,3.7977,3.7979,0,3.7169,3.7225,3.7282,3.7321,3.735,3.7412,3.7453,3.747,3.7512,3.7576,3.7621,3.7692,3.7749,3.7864,3.79,3.7967,3.7966,3.8027,3.7977,3.7972,3.7969,3.7966,3.7972,3.8037,3.8038,3.8039,3.804,0,3.73,3.7309,3.7366,3.7428,3.7476,3.7526,3.7574,3.7607,3.7631,3.768,3.7752,3.7796,3.7885,3.7956,3.8026,3.8058,3.8055,3.8056,3.8073,3.8071,3.806,3.8068,3.7889,3.8052,3.805,3.805,3.8049,3.8049,3.7393,3.7443,3.7491,3.7556,3.7594,3.764,3.7691,3.772,3.7779,3.7851,3.7859,3.7937,3.799,3.8082,3.8117,3.8181,3.8164,3.8189,3.8196,3.8202,3.8207,3.8049,3.8193,3.8193,3.8193,3.8193,3.8192,0,3.7525,3.7556,3.7615,3.7683,3.7734,3.7724,3.7778,3.7823,3.7891,3.7939,3.7995,3.808,3.8149,3.819,3.826,3.8303,3.8304,3.8321,3.8319,3.8327,3.8217,3.8195,3.832,3.832,3.832,3.832,3.832,3.832,3.76,3.7685,3.77,3.7805,3.7836,3.7911,3.7943,3.7986,3.8025,3.8118,3.8175,3.82,3.8247,3.8321,3.8385,3.8395,3.8422,3.8441,3.8451,3.8347,3.8334,3.8322,3.8302,3.8447,3.8447,3.8556,3.8557,3.8557]},{"header":{"parameterUnit":"m.s-1","parameterCategory":1,"la1":30.2991,"la2":30.254,"lo1":-89.0895,"lo2":-89.0444,"dy":0.0017,"dx":0.0017,"nx":28,"ny":28,"refTime":"2023-08-07T21:00:00:Z","depth":0,"parameterNumber":3,"parameterNumberName":"V-component_of_WINDS"},"data":[0,0,0,0,0,0,0,0,0,0,0,0,0,0,0,0,0,0,0,0,0,0,0,0,0,0,0,0,0,0,0,0,0,0,0,0,0,0,0,0,0,0,0,0,0,0,0,0,0,0,0,0,0,0,0,0,0,0,1.4517,1.4518,0,1.4591,1.4592,1.4593,1.4617,1.4617,1.4616,1.4616,1.4689,1.4691,1.4693,0,0,0,0,0,0,0,0,0,0,0,0,0,1.4392,1.4394,1.4517,1.4518,1.4519,1.4591,1.4592,1.4593,1.4617,1.4617,1.4616,1.4616,1.4688,1.4691,1.4694,0,0,0,0,0,0,0,0,0,0,0,0,0,1.4454,1.4395,1.4517,1.454,1.4543,1.4591,1.4592,1.4593,1.4617,1.4617,1.4616,1.4616,1.4687,1.4691,1.4694,1.4724,0,0,1.4704,1.4706,0,0,0,0,0,0,0,0,1.4451,1.4459,1.4536,1.4538,1.4542,1.4594,1.4575,1.4637,1.4617,1.4589,1.4616,1.4616,1.4658,1.4663,1.4678,1.4727,1.473,1.4704,1.4706,1.4708,1.4709,0,0,0,0,0,0,0,1.4446,1.4456,1.4546,1.4537,1.454,1.4545,1.4553,1.4586,1.4625,1.4591,1.4593,1.4602,1.4659,1.4675,1.468,1.4732,1.4704,1.4707,1.4709,1.4711,1.4805,1.4805,0,0,0,0,0,0,1.4439,1.4452,1.4544,1.4549,1.4494,1.4547,1.4557,1.4578,1.4625,1.4631,1.4602,1.4603,1.4669,1.4676,1.4683,1.4719,1.4708,1.4711,1.4713,1.4804,1.4805,1.4806,0,0,0,0,0,0,1.4436,1.4447,1.4541,1.4501,1.4513,1.455,1.4574,1.458,1.4596,1.4633,1.4639,1.4611,1.4669,1.4678,1.4713,1.4722,1.4712,1.4716,1.4804,1.4805,1.4805,1.4793,0,0,0,0,0,0,1.4432,1.4446,1.4459,1.4501,1.4515,1.4572,1.4574,1.4581,1.4602,1.4603,1.4643,1.465,1.467,1.4708,1.4716,1.4726,1.4718,1.4803,1.4804,1.4805,1.4793,1.4793,1.4794,0,0,0,0,0,1.4428,1.4453,1.446,1.447,1.4533,1.4572,1.458,1.4604,1.4602,1.4615,1.4638,1.4648,1.4719,1.4711,1.4721,1.4732,1.4803,1.4804,1.4805,1.4793,1.4793,1.4794,0,0,0,0,0,0,1.4411,1.4459,1.4467,1.4507,1.4535,1.4576,1.4593,1.4604,1.4633,1.4633,1.466,1.4669,1.4701,1.472,1.471,1.4762,1.4761,1.4764,1.4748,1.4749,1.475,1.4744,1.4721,0,0,0,0,0,1.4411,1.4441,1.4481,1.4511,1.4525,1.4556,1.4575,1.459,1.462,1.4632,1.4658,1.4686,1.4715,1.4733,1.4761,1.4795,1.4803,1.4807,1.4808,1.4808,1.481,1.4827,1.4828,1.4809,1.4809,1.4809,0,0,1.4414,1.4443,1.446,1.4509,1.4533,1.456,1.4567,1.4597,1.4617,1.4637,1.4671,1.469,1.4723,1.4757,1.4773,1.4774,1.4817,1.4809,1.4809,1.4812,1.4828,1.483,1.4831,1.481,1.481,1.481,0,0,1.4431,1.4458,1.4485,1.4509,1.4545,1.4565,1.4571,1.461,1.4624,1.4659,1.4673,1.4696,1.4746,1.4767,1.4785,1.4807,1.4817,1.4815,1.4818,1.4833,1.4835,1.4836,1.4843,1.4845,1.4817,1.4817,1.4817,0,1.4429,1.4473,1.4498,1.4526,1.4546,1.4565,1.4591,1.4612,1.4655,1.4667,1.4668,1.4728,1.4751,1.4789,1.4794,1.4808,1.4814,1.4811,1.4833,1.4835,1.4836,1.4843,1.4845,1.4817,1.4817,1.4817,1.4817,0,1.4468,1.4498,1.4515,1.4556,1.4578,1.4605,1.4631,1.465,1.4662,1.4681,1.4714,1.4743,1.4776,1.4786,1.4799,1.4825,1.4824,1.4828,1.4828,1.4837,1.4844,1.4846,1.4816,1.4816,1.4817,1.4817,0,0,1.4479,1.4531,1.4537,1.4555,1.4594,1.4617,1.4643,1.4676,1.4691,1.4718,1.474,1.4779,1.4783,1.4803,1.4817,1.4831,1.4844,1.4833,1.4834,1.4834,1.4872,1.4868,1.4871,1.485,1.4851,1.4851,1.4869,0,1.4501,1.4552,1.4573,1.4612,1.4638,1.4655,1.4677,1.4703,1.472,1.4744,1.4763,1.479,1.4793,1.4805,1.4819,1.484,1.4852,1.4838,1.4869,1.487,1.4861,1.4875,1.4872,1.4887,1.4872,1.4872,1.4872,0,1.4535,1.4563,1.4605,1.4638,1.465,1.4671,1.4701,1.4724,1.4751,1.4763,1.4783,1.4797,1.4823,1.482,1.4855,1.4845,1.4858,1.487,1.4871,1.4875,1.4872,1.4878,1.4893,1.4895,1.4877,1.4876,1.4876,0,1.4537,1.4585,1.4616,1.463,1.4671,1.4684,1.4702,1.4729,1.4746,1.4772,1.4783,1.4811,1.4826,1.4846,1.4866,1.4862,1.4898,1.4898,1.4907,1.4906,1.4914,1.4914,1.4931,1.4923,1.4923,1.4923,1.4923,0,1.4559,1.4584,1.4617,1.4636,1.4663,1.4686,1.4711,1.4729,1.4753,1.4774,1.4789,1.4808,1.4833,1.4855,1.487,1.4895,1.4902,1.4911,1.4914,1.491,1.4908,1.4919,1.4918,1.4924,1.4923,1.4923,1.4923,0,1.4567,1.459,1.4625,1.4659,1.4669,1.4687,1.4716,1.4733,1.4751,1.4777,1.4784,1.4811,1.4837,1.4858,1.4892,1.4902,1.4928,1.4933,1.4919,1.4921,1.4929,1.4927,1.4953,1.4957,1.4947,1.4947,1.4947,0,1.458,1.4599,1.4636,1.4651,1.4668,1.4693,1.471,1.4732,1.4749,1.4781,1.4794,1.4821,1.4844,1.4883,1.4905,1.493,1.4935,1.4942,1.4939,1.4932,1.4934,1.4933,1.4934,1.4943,1.4943,1.4943,1.4943,0,1.4599,1.4609,1.4635,1.4663,1.4683,1.4707,1.473,1.4741,1.4767,1.4785,1.4812,1.4829,1.4863,1.4889,1.4916,1.4931,1.494,1.4943,1.4947,1.4942,1.4933,1.4937,1.4919,1.4943,1.4943,1.4943,1.4943,1.4943,1.461,1.4627,1.4654,1.4681,1.4701,1.4722,1.4739,1.4758,1.4781,1.4811,1.4822,1.4849,1.4873,1.491,1.4925,1.4945,1.4946,1.4951,1.4953,1.4954,1.4952,1.4929,1.495,1.495,1.495,1.495,1.495,0,1.4629,1.4647,1.4671,1.4703,1.4724,1.4731,1.4756,1.4772,1.4796,1.4818,1.484,1.4869,1.4893,1.4916,1.4941,1.4952,1.4957,1.4958,1.4957,1.496,1.4951,1.4945,1.4954,1.4954,1.4954,1.4954,1.4954,1.4954,1.4641,1.467,1.4683,1.472,1.4738,1.4765,1.4778,1.4797,1.4814,1.4847,1.4867,1.4882,1.4903,1.4929,1.4951,1.4957,1.4965,1.4965,1.4971,1.4962,1.4961,1.4961,1.4956,1.4966,1.4966,1.498,1.498,1.498]}]]